Regional Weather Roundup
Issued by NWS Wakefield, VA

Home | Current Version | Previous Version | Text Only | Print | Product List | Glossary Off
Versions: 1 2 3 4 5 6 7 8 9 10 11 12 13 14 15 16 17 18 19 20 21 22 23 24 25 26 27 28 29 30 31 32 33 34 35 36 37 38 39 40 41 42 43 44 45 46 47 48 49 50

000
ASUS41 KAKQ 191415
RWRAKQ

REGIONAL WEATHER ROUNDUP
NATIONAL WEATHER SERVICE WAKEFIELD VA
1000 AM EDT TUE SEP 19 2017

Note: "fair" indicates few or no clouds below 12,000 feet with no
significant weather and/or obstructions to visibility. * = Denotes
station may not report precipitation (e.g., rain,snow,etc.),
thunder or fog.

VAZ042-051-052>054-056-191500-
NORTHERN VIRGINIA

CITY           SKY/WX    TMP DP  RH WIND       PRES   REMARKS
WASH NATIONAL  CLOUDY    74  68  81 N12       30.01R
DULLES         CLOUDY    70  66  87 N12       30.03R
FORT BELVOIR   CLOUDY    72  65  78 N6        30.00R
QUANTICO       CLOUDY    73  67  81 N10G17    30.01R
FREDERICKSBRG* CLOUDY    71  66  86 N7        30.00S
STAFFORD*      CLOUDY    70  68  95 NW9       30.05S
WARRENTON      CLOUDY    71  62  73 N12G18    30.03R
CULPEPER*      CLOUDY    70  66  86 N12       30.04R
MANASSAS*      CLOUDY    72  64  78 N13       30.02S
LEESBURG*      CLOUDY    72  68  88 N10       30.04R
WINCHESTER     CLOUDY    68  61  77 NE6       30.06R
FRONT ROYAL*   CLOUDY    66  64  94 CALM      30.06R
LURAY*         CLOUDY    68  64  88 CALM      30.07R FOG
$$

VAZ048-049-060>072-079>083-191500-
CENTRAL AND SOUTH CENTRAL VIRGINIA

CITY           SKY/WX    TMP DP  RH WIND       PRES   REMARKS
RICHMOND       PTSUNNY   73  66  78 N16       29.98R
CHESTERFIELD*  NOT AVBL
PETERSBURG*    CLOUDY    72  64  76 N12G17    29.99R
HANOVER        CLOUDY    71  65  81 N9        30.01R
TAPPAHANNOCK*  CLOUDY    74  67  78 N9G17     29.97R
QUINTON*       CLOUDY    72  67  87 N9G16     29.97R
CHARLOTTSVILLE SUNNY     74  65  73 N5        30.03S
GORDONSVILLE*  CLOUDY    71  66  84 N6        30.03R
ORANGE*        CLOUDY    68  63  83 N9        30.03S
LOUISA*        CLOUDY    70  63  78 N10       30.03R
BUMPASS*       NOT AVBL
FARMVILLE*     MOSUNNY   73  68  87 N7G16     30.02R
CREWE*         CLOUDY    69  69 100 NW3       30.02R
FORT PICKETT*  CLOUDY    69  69 100 N9        30.01R
CHASE CITY*    FAIR      70  69  98 N10       30.03R
CLARKSVILLE*   CLOUDY    68  66  94 N7        30.02S
SOUTH HILL*    CLOUDY    69  66  90 NW7       30.06S
LAWRENCEVILLE* CLOUDY    72  66  81 N9G20     29.99S
EMPORIA*       PTSUNNY   70  64  83 NW12G21   29.99R
$$

VAZ088>098-191500-
SOUTHEAST VIRGINIA

CITY           SKY/WX    TMP DP  RH WIND       PRES   REMARKS
NORFOLK        CLOUDY    74  68  81 N21G30    29.87S
VIRGINIA BEACH LGT RAIN  71  67  87 N16G33    29.85R FOG
NORFOLK NAVAL  CLOUDY    74  67  78 N18G28    29.90R
WEST POINT*    PTSUNNY   73  66  78 NW9G16    29.95S
SALUDA*        CLOUDY    74  69  82 N13G20    29.92R
NEWPORT NEWS   CLOUDY    74  67  78 N12G21    29.91R
LANGLEY AFB    PTSUNNY   73  67  81 N12G24    29.89S
FORT EUSTIS    PTSUNNY   75  67  74 N12G18    29.90R
WILLIAMSBURG*  SUNNY     75  70  83 N7        29.94R
HR EXEC AP*    CLOUDY    73  68  84 VRB6      29.90S
FRANKLIN*      PTSUNNY   73  66  79 N9G18     29.93S
US460-WAKEFLD  MOSUNNY   74  67  78 N8G17     29.94S
$$

VAZ020-022-025-037-045-191500-
WEST CENTRAL AND SOUTHWEST VIRGINIA

CITY           SKY/WX    TMP DP  RH WIND       PRES   REMARKS
STAUNTON*      CLOUDY    67  62  86 NE6       30.10R
WAYNESBORO*    CLOUDY    65  64  97 N5        30.09R
HOT SPRINGS VA CLOUDY    57  57 100 CALM      30.17S FOG
LYNCHBURG      MOSUNNY   72  64  76 VRB3      30.06R
DANVILLE       PTSUNNY   72  66  81 VRB6      30.05R
SOUTH BOSTON*  CLOUDY    71  66  86 N8        30.04R
MARTINSVILLE   PTSUNNY   69  65  86 N3        30.09S
ROANOKE        CLOUDY    69  65  86 N5        30.09R
BLACKSBURG     CLOUDY    63  63 100 CALM      30.14R FOG
DUBLIN*        FOG       64  64 100 CALM      30.12R VSB 1/4
MARION*        SUNNY     66  62  87 CALM      30.15R
HILLSVILLE*    SUNNY     63  59  87 CALM      30.12R
RICHLANDS*     FAIR      66  60  81 CALM      30.12R
WISE*          CLOUDY    68  59  73 S5        30.12S
ABINGDON*      SUNNY     71  63  75 SE3       30.11R HAZE
$$

MDZ021>025-VAZ099-100-191500-
SOUTHERN MARYLAND AND THE DELMARVA PENINSULA

CITY           SKY/WX    TMP DP  RH WIND       PRES   REMARKS
PATUXENT RIVER PTSUNNY   75  68  78 N15       29.94S
BAY BRIDGE APT MOSUNNY   75  68  78 N10G23    29.97S
LEONARDTOWN    PTSUNNY   73  66  78 N7        29.97S
DOVER          PTSUNNY   73  70  88 N18G29    29.93S
GEORGETOWN     CLOUDY    73  68  84 N15G23    29.91S
EASTON         MOSUNNY   77  66  69 N16G23    29.98R
CAMBRIDGE      CLOUDY    73  68  83 N14G21    29.93S
SALISBURY      LGT RAIN  72  69  90 N18G25    29.88S
OCEAN CITY     CLOUDY    72  70  93 N17G30    29.87S
WALLOPS ISLAND LGT RAIN  72  70  93 N15G24    29.86S
ACCOMACK*      CLOUDY    72  69  92 N13G18    29.87S
$$

NCZ012>017-030>032-191500-
NORTH CENTRAL AND EASTERN NORTH CAROLINA

CITY           SKY/WX    TMP DP  RH WIND       PRES   REMARKS
ROANOKE RAPIDS PTSUNNY   72  66  83 MISG      29.98R
RALEIGH        MOSUNNY   72  66  81 N7        30.02R
ELIZABETH CITY CLOUDY    72  70  93 NW14      29.87S
AHOSKIE*         N/A     69  66  89 N5        29.96R
EDENTON*       CLOUDY    74  68  81 N16       29.91R
CURRITUCK*     CLOUDY    71  67  88 N12       29.87R
KILL DEVIL HLS LGT RAIN  68  67  97 N15G26    29.81F
MANTEO         CLOUDY    69  67  94 N18G25    29.84R FOG
CAPE HATTERAS  LGT RAIN  72  70  93 VRB7G23   29.84R
TARBORO*       NOT AVBL
GOLDSBORO      CLOUDY    71  70  97 N8        29.98R
WASHINGTON     PTSUNNY   74  67  79 NW9G16    29.94R
GREENVILLE     CLOUDY    72  66  83 N8        29.98R
NEW BERN       CLOUDY    73  67  81 NW9G16    29.96R
WILMINGTON     PTSUNNY   75  67  76 N12G18    29.97R
$$

VAZ048-191500-
ELSEWHERE

CITY           SKY/WX    TMP DP  RH WIND       PRES   REMARKS
HARRISBURG PA  CLOUDY    71  66  84 N7        30.04R
BALTIMORE      PTSUNNY   73  67  81 NE6       29.99R
ANNAPOLIS      CLOUDY    75  70  84 N10       29.98R
ANDREWS AFB    CLOUDY    71  66  82 N9        29.99R
PHILADELPHIA   PTSUNNY   75  66  73 N17G31    29.98S
HENDERSON NC   PTSUNNY   67  62  84 N8        30.02S
GREENSBORO     MOSUNNY   73  66  78 N8        30.05R
ROCKY MOUNT    PTSUNNY   72  67  84 NW10      29.99R
$$

VAZ100-191500-
MARINE

STATION/POSITION TIME  TEMP    WIND        PRES    WAVE   SWELL
                       AIR SEA DIR/SP/G            HT/PER HT/PER
                 (UTC) (F)     (DEG/KT/KT) (MB)    (FT/S) (FT/S)
BRANDYWINE LGT   1336   72      20/ 27/ 31 1013.0R
CAPE MAY NJ      1348   71 74   20/  8/ 16 1012.1R
LEWES DE         1348   72 72   20/ 19/ 25 1012.5R
15NM E FENWICK I 1350   72 71  360/ 31/ 39 1009.6R  14/12   8/12
OCEAN-CITY-INLET 1348   73 73   30/ 14/ 21 1011.5R
WACHAPREAGUE VA  1348   71 74  340/  6/ 12 1011.1R
THOMAS POINT MD  1400   72 75   10/ 19/ 20   N/A
GOOSES REEF MD   1400   74 74   30/ 17/ 21 1015.1
COVE POINT MD    1348   72      10/ 20/ 25 1014.6R
SOLOMONS ISLAND  1348   73 76  350/ 15/ 20 1013.5R
BISHOPS HEAD MD  1348   73 73  360/ 12/ 19 1013.0S
PINEY POINT MD   1348           20/ 15/ 18   N/A
POTOMAC MD       1400   74 75   10/ 16/ 21 1012.6    1/ 2
CAMBRIDGE MD     1336   74 76              1014.5R
LEWISETTA VA     1348   74 75   20/ 12/ 18 1013.7R
RAPPAHANNOCK LGT 1348          340/ 28/ 33 1012.1R
STINGRAY PT      1400   74 76   30/ 21/ 27 1012.7    3/ 4
YORK RVR RNG VA  1348   74      10/ 23/ 27 1012.4R
YORKTOWN VA      1348   74 76  340/ 18/ 23 1012.6R
JAMESTOWN VA     1400      77  340/ 12/ 17   N/A     1
DOMINION TERM VA 1348   74      80/  3/  6 1012.3R
KIPTOPEKE VA     1348      75   10/ 14/ 19   N/A
CHES BAY BRIDGE  1348   73 75  360/ 29/ 32 1011.3R
CAPE HENRY VA    1348   73     350/ 28/ 32   N/A
WILLOUBY STN VA  1336   73     350/ 18/ 21 1011.9R
S CRANEY ISL VA  1348   73     350/ 11/ 20 1011.9R
CAPE HENRY BUOY  1330      74                N/A     9/13   5/13
1ST LANDING BUOY 1400   73 74              1011.0    6/ 5
64NM E OF VA BCH 1350   71 71  350/ 33/ 39 1005.2R  15/11  11/11
DUCK PIER NC     1348   71 75  350/ 22/ 29 1009.2R
44100 DUCK FRF   1335      74                N/A    15/13  10/13
44056 DUCK FRF   1330      75                N/A    14/13  10/13
OREGON INLET NC  1336   71 74  330/ 18/ 26 1009.0S
HATTERAS NC      1348   72 76  340/ 21/ 25 1010.6R
DIAMOND SHLS NC  1350   72 76  340/ 25/ 33 1009.1R  11/12   8/12
CAPE LOOKOUT NC  1400   72     320/ 13/ 17 1012.6R
$$



USA.gov is the U.S. government's official web portal to all federal, state and local government web resources and services.